This is the latest recevied weather packets stored in our database for station/object OK2KJT-11. If no packets are shown the sender has not sent any weather packets the latest 10 day(s).
| Time | Temp. | Humidity | Pressure | Rain* | Wind** | Luminosity | Snow |
|---|---|---|---|---|---|---|---|
| 1788497334 | 13.33° C | 79% | 1020.1 hPa | - | - | - | - |
| 1788496735 | 13.33° C | 79% | 1020 hPa | - | - | - | - |
| 1788496135 | 13.33° C | 79% | 1020 hPa | - | - | - | - |
| 1788495535 | 13.33° C | 80% | 1020 hPa | - | - | - | - |
| 1788494935 | 13.33° C | 78% | 1020.1 hPa | - | - | - | - |
| 1788494336 | 13.33° C | 78% | 1020.1 hPa | - | - | - | - |
| 1788493736 | 13.33° C | 77% | 1020 hPa | - | - | - | - |
| 1788493136 | 13.33° C | 77% | 1020.1 hPa | - | - | - | - |
| 1788492536 | 13.33° C | 77% | 1019.9 hPa | - | - | - | - |
| 1788491941 | 13.89° C | 77% | 1020.1 hPa | - | - | - | - |
| 1788491337 | 13.89° C | 76% | 1020.2 hPa | - | - | - | - |
| 1788490737 | 13.89° C | 77% | 1020.2 hPa | - | - | - | - |
| 1788488938 | 13.33° C | 76% | 1020 hPa | - | - | - | - |
| 1788488338 | 13.33° C | 75% | 1020 hPa | - | - | - | - |
| 1788486539 | 13.89° C | 76% | 1020.2 hPa | - | - | - | - |
| 1788485939 | 13.89° C | 76% | 1020.2 hPa | - | - | - | - |
| 1788484140 | 14.44° C | 73% | 1020.3 hPa | - | - | - | - |
| 1788483540 | 14.44° C | 73% | 1020.4 hPa | - | - | - | - |
| 1788481741 | 14.44° C | 72% | 1020.6 hPa | - | - | - | - |
| 1788475143 | 14.44° C | 69% | 1021 hPa | - | - | - | - |
| 1788474544 | 15° C | 68% | 1021 hPa | - | - | - | - |
| 1788473944 | 15° C | 68% | 1021.1 hPa | - | - | - | - |
| 1788473344 | 15.56° C | 66% | 1020.9 hPa | - | - | - | - |
| 1788472145 | 16.11° C | 62% | 1020.8 hPa | - | - | - | - |
| 1788471545 | 16.11° C | 62% | 1020.8 hPa | - | - | - | - |
* Rain since midnight (hover to see other rain measurements)
** Current wind speed in m/s (hover to see current wind gust speed)